• En España
  • Lista de países
  • Para 7 días
  • Temperatura del agua
  • Mapa Satelital
  • El tiempo en el mapa
  • Informadores
  • user-avatar
    Iniciar sesión

    Tiempo cada hora Santa Cruz

    Hoy, 15 Noviembre, Jueves

    Tiempo Temperatura Precipitaciones Viento Presión Humedad
    00:00 +24°C° 0 mm 3 mps 723 mmHg 63%
    01:00 +24°C° 0 mm 2 mps 723 mmHg 63%
    02:00 +24°C° 0 mm 2 mps 723 mmHg 63%
    03:00 +23°C° 0 mm 2 mps 723 mmHg 64%
    04:00 +23°C° 0 mm 2 mps 722 mmHg 66%
    05:00 +23°C° 0 mm 2 mps 722 mmHg 68%
    06:00 +23°C° 0.1 mm 2 mps 723 mmHg 68%
    07:00 +23°C° 0.1 mm 2 mps 723 mmHg 68%
    08:00 +23°C° 0 mm 1 mps 723 mmHg 70%
    09:00 +24°C° 0.1 mm 1 mps 723 mmHg 69%
    10:00 +25°C° 0.1 mm 1 mps 723 mmHg 69%
    11:00 +25°C° 0.1 mm 1 mps 722 mmHg 69%
    12:00 +28°C° 0 mm 2 mps 722 mmHg 62%
    13:00 +30°C° 0 mm 2 mps 721 mmHg 54%
    14:00 +33°C° 0 mm 3 mps 720 mmHg 47%
    15:00 +33°C° 0 mm 3 mps 720 mmHg 48%
    16:00 +33°C° 0 mm 3 mps 719 mmHg 49%
    17:00 +33°C° 0 mm 3 mps 719 mmHg 51%
    18:00 +30°C° 0 mm 3 mps 719 mmHg 57%
    19:00 +28°C° 0 mm 2 mps 720 mmHg 63%
    20:00 +27°C° 0 mm 2 mps 720 mmHg 69%
    21:00 +26°C° 0 mm 2 mps 720 mmHg 71%
    22:00 +26°C° 0 mm 2 mps 721 mmHg 73%
    23:00 +25°C° 0 mm 2 mps 721 mmHg 74%

    Mañana, 16 Noviembre, Viernes

    Tiempo Temperatura Precipitaciones Viento Presión Humedad
    00:00 +25°C° 0 mm 2 mps 721 mmHg 77%
    01:00 +24°C° 0 mm 2 mps 721 mmHg 79%
    02:00 +24°C° 0 mm 2 mps 720 mmHg 82%
    03:00 +24°C° 0 mm 2 mps 720 mmHg 84%
    04:00 +23°C° 0 mm 2 mps 720 mmHg 86%
    05:00 +23°C° 0 mm 2 mps 720 mmHg 88%
    06:00 +24°C° 0 mm 2 mps 721 mmHg 81%
    07:00 +26°C° 0 mm 2 mps 721 mmHg 75%
    08:00 +28°C° 0 mm 3 mps 722 mmHg 68%
    09:00 +30°C° 0 mm 3 mps 722 mmHg 62%
    10:00 +33°C° 0 mm 4 mps 722 mmHg 55%
    11:00 +35°C° 0 mm 4 mps 722 mmHg 49%
    12:00 +36°C° 0 mm 4 mps 721 mmHg 46%
    13:00 +37°C° 0 mm 4 mps 720 mmHg 43%
    14:00 +39°C° 0 mm 5 mps 719 mmHg 40%
    15:00 +37°C° 0 mm 4 mps 719 mmHg 42%
    16:00 +37°C° 0 mm 4 mps 719 mmHg 43%
    17:00 +36°C° 0 mm 4 mps 718 mmHg 45%
    18:00 +34°C° 0 mm 3 mps 719 mmHg 51%
    19:00 +31°C° 0 mm 3 mps 719 mmHg 57%
    20:00 +30°C° 0 mm 2 mps 720 mmHg 64%
    21:00 +29°C° 0 mm 2 mps 720 mmHg 66%
    22:00 +28°C° 0 mm 2 mps 720 mmHg 69%
    23:00 +28°C° 0 mm 2 mps 721 mmHg 72%

    Pasado mañana, 17 Noviembre, Sábado

    Tiempo Temperatura Precipitaciones Viento Presión Humedad
    00:00 +27°C° 0 mm 2 mps 720 mmHg 73%
    01:00 +27°C° 0 mm 3 mps 720 mmHg 73%
    02:00 +27°C° 0 mm 3 mps 719 mmHg 74%
    03:00 +26°C° 0 mm 3 mps 719 mmHg 75%
    04:00 +26°C° 0 mm 3 mps 719 mmHg 76%
    05:00 +26°C° 0 mm 3 mps 719 mmHg 77%
    06:00 +27°C° 0 mm 3 mps 720 mmHg 71%
    07:00 +29°C° 0 mm 4 mps 720 mmHg 66%
    08:00 +30°C° 0 mm 4 mps 721 mmHg 61%
    09:00 +33°C° 0 mm 4 mps 720 mmHg 54%
    10:00 +35°C° 0 mm 5 mps 720 mmHg 48%
    11:00 +37°C° 0 mm 5 mps 720 mmHg 41%
    12:00 +39°C° 0 mm 5 mps 719 mmHg 38%
    13:00 +40°C° 0 mm 5 mps 718 mmHg 36%
    14:00 +40°C° 0 mm 5 mps 717 mmHg 33%
    15:00 +40°C° 0 mm 5 mps 716 mmHg 34%
    16:00 +40°C° 0 mm 5 mps 716 mmHg 35%
    17:00 +39°C° 0 mm 5 mps 716 mmHg 35%
    18:00 +37°C° 0 mm 4 mps 716 mmHg 39%
    19:00 +35°C° 0 mm 4 mps 717 mmHg 43%
    20:00 +34°C° 0 mm 3 mps 718 mmHg 47%
    21:00 +33°C° 0 mm 3 mps 718 mmHg 50%
    22:00 +31°C° 0 mm 3 mps 719 mmHg 54%
    23:00 +32°C° 0 mm 4 mps 719 mmHg 58%

    18 Noviembre, Domingo

    Tiempo Temperatura Precipitaciones Viento Presión Humedad
    00:00 +30°C° 0 mm 4 mps 718 mmHg 60%
    01:00 +30°C° 0 mm 4 mps 718 mmHg 63%
    02:00 +29°C° 0 mm 4 mps 717 mmHg 66%
    03:00 +29°C° 0 mm 4 mps 717 mmHg 68%
    04:00 +28°C° 0 mm 4 mps 717 mmHg 70%
    05:00 +28°C° 0 mm 4 mps 717 mmHg 72%
    06:00 +29°C° 0 mm 4 mps 718 mmHg 67%
    07:00 +32°C° 0 mm 4 mps 719 mmHg 61%
    08:00 +33°C° 0 mm 4 mps 720 mmHg 56%
    09:00 +34°C° 0.3 mm 4 mps 721 mmHg 53%
    10:00 +36°C° 0.3 mm 4 mps 721 mmHg 51%
    11:00 +37°C° 0.3 mm 3 mps 721 mmHg 48%
    12:00 +35°C° 1.5 mm 3 mps 721 mmHg 54%
    13:00 +34°C° 1.5 mm 3 mps 720 mmHg 61%
    14:00 +31°C° 1.5 mm 3 mps 720 mmHg 67%
    15:00 +28°C° 7.8 mm 4 mps 720 mmHg 75%
    16:00 +25°C° 7.8 mm 5 mps 721 mmHg 83%
    17:00 +21°C° 7.8 mm 6 mps 721 mmHg 91%
    18:00 +21°C° 0.7 mm 6 mps 722 mmHg 84%
    19:00 +22°C° 0.7 mm 7 mps 723 mmHg 77%
    20:00 +22°C° 0.7 mm 7 mps 724 mmHg 71%
    21:00 +22°C° 0 mm 6 mps 724 mmHg 67%
    22:00 +23°C° 0 mm 5 mps 725 mmHg 64%
    23:00 +23°C° 0 mm 5 mps 725 mmHg 60%

    19 Noviembre, Lunes

    Tiempo Temperatura Precipitaciones Viento Presión Humedad
    00:00 +22°C° 0.1 mm 4 mps 724 mmHg 65%
    01:00 +22°C° 0.1 mm 4 mps 724 mmHg 70%
    02:00 +21°C° 0.1 mm 4 mps 723 mmHg 75%
    03:00 +21°C° 0.4 mm 4 mps 723 mmHg 78%
    04:00 +20°C° 0.4 mm 3 mps 723 mmHg 82%
    05:00 +20°C° 0.4 mm 3 mps 723 mmHg 85%
    06:00 +20°C° 0.3 mm 3 mps 723 mmHg 85%
    07:00 +21°C° 0.3 mm 3 mps 724 mmHg 84%
    08:00 +21°C° 0.3 mm 3 mps 724 mmHg 84%
    09:00 +24°C° 0.1 mm 3 mps 724 mmHg 77%
    10:00 +25°C° 0.1 mm 3 mps 724 mmHg 71%
    11:00 +27°C° 0.1 mm 3 mps 724 mmHg 64%
    12:00 +28°C° 0 mm 2 mps 723 mmHg 58%
    13:00 +30°C° 0 mm 2 mps 722 mmHg 52%
    14:00 +31°C° 0 mm 2 mps 721 mmHg 46%
    15:00 +31°C° 0 mm 1 mps 721 mmHg 48%
    16:00 +30°C° 0 mm 1 mps 720 mmHg 49%
    17:00 +30°C° 0 mm 1 mps 720 mmHg 51%
    18:00 +29°C° 0 mm 1 mps 720 mmHg 56%
    19:00 +27°C° 0 mm 1 mps 721 mmHg 62%
    20:00 +25°C° 0 mm 1 mps 721 mmHg 67%
    21:00 +25°C° 0 mm 1 mps 721 mmHg 70%
    22:00 +22°C° 0 mm 0 mps 722 mmHg 72%
    23:00 +22°C° 0 mm 0 mps 722 mmHg 74%

    20 Noviembre, Martes

    Tiempo Temperatura Precipitaciones Viento Presión Humedad
    00:00 +22°C° 0 mm 0 mps 722 mmHg 75%
    01:00 +21°C° 0 mm 0 mps 721 mmHg 77%
    02:00 +21°C° 0 mm 0 mps 721 mmHg 78%
    03:00 +21°C° 0 mm 0 mps 721 mmHg 78%
    04:00 +21°C° 0 mm 0 mps 721 mmHg 79%
    05:00 +21°C° 0 mm 0 mps 721 mmHg 79%
    06:00 +22°C° 0 mm 0 mps 722 mmHg 75%
    07:00 +23°C° 0 mm 0 mps 722 mmHg 71%
    08:00 +24°C° 0 mm 0 mps 723 mmHg 67%
    09:00 +26°C° 0 mm 0 mps 723 mmHg 61%
    10:00 +30°C° 0 mm 1 mps 723 mmHg 54%
    11:00 +32°C° 0 mm 1 mps 723 mmHg 47%
    12:00 +33°C° 0 mm 1 mps 723 mmHg 47%
    13:00 +33°C° 0 mm 1 mps 722 mmHg 46%
    14:00 +33°C° 0 mm 1 mps 722 mmHg 46%
    15:00 +33°C° 0 mm 1 mps 721 mmHg 49%
    16:00 +32°C° 0 mm 1 mps 721 mmHg 52%
    17:00 +31°C° 0 mm 2 mps 720 mmHg 56%
    18:00 +29°C° 0 mm 1 mps 721 mmHg 62%
    19:00 +28°C° 0 mm 1 mps 721 mmHg 68%
    20:00 +26°C° 0 mm 1 mps 722 mmHg 74%
    21:00 +25°C° 0.7 mm 1 mps 722 mmHg 79%
    22:00 +25°C° 0.7 mm 1 mps 723 mmHg 84%
    23:00 +24°C° 0.7 mm 1 mps 723 mmHg 89%
    Mostrar más